TimeMDT,TemperatureF,Dew PointF,Humidity,Sea Level PressureIn,VisibilityMPH,Wind Direction,Wind SpeedMPH,Gust SpeedMPH,PrecipitationIn,Events,Conditions,WindDirDegrees,DateUTC
12:53 AM,55.0,53.1,93,30.02,10.0,SSW,8.1,-,N/A,,Clear,200,2013-09-06 06:53:00
1:53 AM,57.0,55.0,93,30.03,10.0,SW,9.2,-,N/A,,Mostly Cloudy,230,2013-09-06 07:53:00
2:53 AM,57.0,54.0,89,30.00,10.0,WSW,3.5,-,N/A,,Partly Cloudy,250,2013-09-06 08:53:00
3:53 AM,55.0,53.1,93,30.01,10.0,SSW,6.9,-,N/A,,Partly Cloudy,200,2013-09-06 09:53:00
4:53 AM,55.0,53.1,93,29.99,10.0,SE,5.8,-,N/A,,Clear,140,2013-09-06 10:53:00
5:53 AM,51.1,50.0,96,30.02,10.0,Calm,Calm,-,N/A,,Clear,0,2013-09-06 11:53:00
6:53 AM,52.0,50.0,93,30.03,10.0,SSE,8.1,-,N/A,,Clear,150,2013-09-06 12:53:00
7:53 AM,54.0,52.0,93,30.04,10.0,SE,4.6,-,N/A,,Clear,130,2013-09-06 13:53:00
8:53 AM,57.9,55.0,90,30.04,10.0,Calm,Calm,-,N/A,,Clear,0,2013-09-06 14:53:00
9:53 AM,61.0,55.0,81,30.04,10.0,West,3.5,-,N/A,,Clear,270,2013-09-06 15:53:00
10:53 AM,64.0,55.0,73,30.03,10.0,Variable,3.5,-,N/A,,Clear,0,2013-09-06 16:53:00
11:53 AM,66.9,54.0,63,30.02,10.0,Calm,Calm,-,N/A,,Clear,0,2013-09-06 17:53:00
12:53 PM,72.0,53.1,51,29.99,10.0,NNW,3.5,-,N/A,,Clear,340,2013-09-06 18:53:00
1:53 PM,75.0,55.0,50,29.96,10.0,Variable,3.5,-,N/A,,Clear,0,2013-09-06 19:53:00
2:53 PM,79.0,55.9,45,29.91,10.0,North,6.9,-,N/A,,Clear,10,2013-09-06 20:53:00
3:53 PM,80.1,55.0,42,29.88,10.0,Variable,5.8,-,N/A,,Partly Cloudy,0,2013-09-06 21:53:00
4:53 PM,82.9,46.9,28,29.86,10.0,South,12.7,19.6,N/A,,Clear,180,2013-09-06 22:53:00
5:53 PM,84.0,44.1,25,29.86,10.0,South,16.1,26.5,N/A,,Clear,180,2013-09-06 23:53:00
6:53 PM,82.0,43.0,25,29.86,10.0,South,20.7,28.8,N/A,,Clear,170,2013-09-07 00:53:00
7:53 PM,77.0,48.9,37,29.88,10.0,SSE,19.6,27.6,N/A,,Clear,160,2013-09-07 01:53:00
8:53 PM,75.9,46.9,36,29.89,10.0,South,19.6,25.3,N/A,,Partly Cloudy,170,2013-09-07 02:53:00
9:53 PM,75.9,45.0,33,29.89,10.0,South,12.7,21.9,N/A,,Partly Cloudy,180,2013-09-07 03:53:00
10:53 PM,70.0,46.9,44,29.92,10.0,West,4.6,-,N/A,,Mostly Cloudy,270,2013-09-07 04:53:00
11:53 PM,69.1,46.9,45,29.94,10.0,SSE,8.1,-,N/A,,Clear,160,2013-09-07 05:53:00